Regional Weather Roundup
Issued by NWS

Home | Current Version | Previous Version | Text Only | Print | Product List | Glossary Off
Versions: 1 2 3 4 5 6 7 8 9 10 11 12 13 14 15 16 17 18 19 20 21 22 23 24 25 26 27 28 29 30 31 32 33 34 35 36 37 38 39 40 41 42 43 44 45 46 47 48 49 50

000
ASUS43 KBIS 031702
RWRND

NORTH DAKOTA REGIONAL WEATHER ROUNDUP
NATIONAL WEATHER SERVICE BISMARCK ND
1200 PM CDT WED JUN 03 2015

NOTE: "FAIR" INDICATES FEW OR NO CLOUDS BELOW 12,000 FEET WITH NO
SIGNIFICANT WEATHER AND/OR OBSTRUCTIONS TO VISIBILITY.


NDZ001>003-009>011-017-031800-
NORTHWEST NORTH DAKOTA

CITY           SKY/WX    TMP DP  RH WIND       PRES   REMARKS
WILLISTON      CLOUDY    62  43  49 MISG      30.04S
MINOT          CLOUDY    57  39  51 N17       30.02R
MINOT AFB      CLOUDY    58  44  59 NE13      30.01S
$$

NDZ018>021-031>035-040>046-031800-
SOUTHWEST NORTH DAKOTA

CITY           SKY/WX    TMP DP  RH WIND       PRES   REMARKS
BISMARCK       CLOUDY    58  44  60 N14       29.99S
DICKINSON      MOSUNNY   59  44  57 N9        30.03R
GARRISON         N/A     60  41  49 N6        30.01R
HETTINGER ARPT MOSUNNY   59  49  69 N9        30.03S
$$

NDZ004>008-012>016-024-026-027-054-031800-
NORTHEAST NORTH DAKOTA

CITY           SKY/WX    TMP DP  RH WIND       PRES   REMARKS
GRAND FORKS    CLOUDY    55  48  77 N15       29.85R
GRND FRKS AFB  CLOUDY    55  47  73 N16       29.87R
DEVILS LAKE    CLOUDY    55  43  62 N15G21    29.92S
$$

NDZ022-023-025-028>030-036>039-047>053-031800-
SOUTHEAST NORTH DAKOTA

CITY           SKY/WX    TMP DP  RH WIND       PRES   REMARKS
FARGO          CLOUDY    58  53  84 NW16      29.83R
JAMESTOWN      CLOUDY    54  47  77 N16G23    29.90R
$$



USA.gov is the U.S. government's official web portal to all federal, state and local government web resources and services.